Location: Caltech
(34.1382°N, 118.1253°W)
Time: 18:12:03
(UTC-07:00)

Cosmos 1833 Rocket - Visible Passes

Search period start: 22 May 2015 00:00
Search period end: 01 June 2015 00:00
Orbit: 833 x 840 km, 71.0° (Epoch: 22 May)

Date Brightness Start Highest point End Pass type
(mag) Time Alt. Az. Time Alt. Az. Time Alt. Az.
23 May 4.0 05:04:16 10° S 05:09:25 40° ESE 05:14:38 10° NE visible
24 May 4.1 04:47:46 10° S 04:52:48 36° ESE 04:57:55 10° NE visible
25 May 4.2 04:31:18 10° SSE 04:36:11 33° ESE 04:41:11 10° NE visible
26 May 4.3 04:14:50 10° SSE 04:19:35 30° ESE 04:24:26 10° NE visible
27 May 4.4 03:58:24 10° SSE 04:02:58 27° ESE 04:07:41 10° NE visible
28 May 4.5 03:41:59 10° SSE 03:46:22 25° ESE 03:50:55 10° NE visible
29 May 4.6 03:25:58 11° SSE 03:29:46 23° ESE 03:34:07 10° NE visible
29 May 3.3 05:08:13 10° SW 05:13:28 40° WNW 05:18:43 10° N visible
30 May 4.6 03:10:09 13° SE 03:13:09 21° ESE 03:17:18 10° NE visible
30 May 3.2 04:51:52 12° SW 04:56:48 44° WNW 05:02:09 10° N visible
31 May 4.7 02:54:16 14° SE 02:56:33 19° ESE 03:00:27 10° ENE visible
31 May 3.1 04:35:59 17° SW 04:40:09 48° WNW 04:45:34 10° N visible
